TimeCST,TemperatureF,Dew PointF,Humidity,Sea Level PressureIn,VisibilityMPH,Wind Direction,Wind SpeedMPH,Gust SpeedMPH,PrecipitationIn,Events,Conditions,WindDirDegrees,DateUTC
12:53 AM,39.0,33.1,79,30.15,10.0,Calm,Calm,-,N/A,,Clear,0,2013-02-21 06:53:00
1:53 AM,37.9,30.0,73,30.13,10.0,Calm,Calm,-,N/A,,Clear,0,2013-02-21 07:53:00
2:53 AM,36.0,32.0,86,30.12,10.0,NNE,5.8,-,N/A,,Clear,30,2013-02-21 08:53:00
3:53 AM,37.0,28.9,73,30.12,10.0,NE,3.5,-,N/A,,Clear,40,2013-02-21 09:53:00
4:53 AM,36.0,28.0,73,30.14,10.0,NE,4.6,-,N/A,,Clear,40,2013-02-21 10:53:00
5:53 AM,37.0,27.0,67,30.16,10.0,ENE,4.6,-,N/A,,Clear,60,2013-02-21 11:53:00
6:53 AM,39.0,27.0,62,30.17,10.0,ENE,8.1,-,N/A,,Clear,60,2013-02-21 12:53:00
7:53 AM,44.1,27.0,51,30.17,10.0,East,6.9,-,N/A,,Clear,80,2013-02-21 13:53:00
8:53 AM,46.9,27.0,46,30.18,10.0,East,6.9,-,N/A,,Clear,100,2013-02-21 14:53:00
9:53 AM,53.1,30.0,41,30.18,10.0,East,5.8,-,N/A,,Clear,90,2013-02-21 15:53:00
10:53 AM,59.0,30.0,33,30.16,10.0,East,8.1,-,N/A,,Partly Cloudy,100,2013-02-21 16:53:00
11:53 AM,62.1,28.0,28,30.12,10.0,SE,9.2,-,N/A,,Clear,140,2013-02-21 17:53:00
12:53 PM,64.9,30.0,27,30.07,10.0,SE,11.5,-,N/A,,Clear,130,2013-02-21 18:53:00
1:53 PM,66.9,30.9,26,30.04,10.0,ESE,8.1,-,N/A,,Clear,110,2013-02-21 19:53:00
2:53 PM,69.1,33.1,26,30.01,10.0,SE,11.5,-,N/A,,Clear,130,2013-02-21 20:53:00
3:53 PM,66.9,36.0,32,30.00,10.0,SE,12.7,-,N/A,,Mostly Cloudy,140,2013-02-21 21:53:00
4:53 PM,64.9,39.0,39,30.00,10.0,SE,6.9,-,N/A,,Clear,130,2013-02-21 22:53:00
5:53 PM,61.0,41.0,48,30.01,10.0,SE,5.8,-,N/A,,Clear,130,2013-02-21 23:53:00
6:53 PM,60.1,42.1,51,30.02,10.0,SE,4.6,-,N/A,,Clear,130,2013-02-22 00:53:00
7:53 PM,57.9,44.1,60,30.03,10.0,Calm,Calm,-,N/A,,Clear,0,2013-02-22 01:53:00
8:53 PM,57.0,46.0,67,30.03,10.0,Calm,Calm,-,N/A,,Clear,0,2013-02-22 02:53:00
9:53 PM,57.9,48.9,72,30.01,10.0,SE,8.1,-,N/A,,Clear,130,2013-02-22 03:53:00
10:53 PM,55.9,50.0,80,30.01,10.0,SE,6.9,-,N/A,,Clear,130,2013-02-22 04:53:00
11:53 PM,57.9,53.1,84,30.01,10.0,SSE,8.1,-,N/A,,Clear,160,2013-02-22 05:53:00